STARLINK-32279, 61003

Orbit data source: Space-Track

STARLINK-32279, 61003 is a payload satellite owned by SpaceX/Seattle (US) in LEO that was launched on Thu, 05 Sep 2024 UTC via an FALCON 9 launch vehicle from the Air Force Eastern Test Range (AFETR). Payload-class satellites include a variety of spacecraft equipped with specific instruments for various scientific and technological missions. These include communications satellites like Starlink; space stations such as the ISS; scientific satellites like the Hubble; Earth observation satellites from companies like Planet Labs, Umbra, and HawkEye 360; GPS; miniature CubeSats for education and research; and military/defense satellites.

Loading next visibility...
Identifier
61003, 2024-158P
Orbit
LEO
Country
Flag of USUS
Related business
Manufacturer
SpaceX/Seattle
Mission
Operational Commercial Communications
Bus & Motor
STARLINK V2M, Unknown motor
Mass
730 kg wet, ~700 kg dry
Launch date (UTC)
2024-09-05 (1 year ago)
Launch vehicle
FALCON 9
Launch site
Air Force Eastern Test Range (AFETR)
Object type
Payload
Rocket body
Debris
Shape & HBR
Box + 2 Pan, 17.7 m
Radar Cross Section
33.884 m², Large (>1 m²)

Expand to show TLE details & history
Last TLE update: 21 hours ago

TLE from 21 hours ago
0 STARLINK-32279
1 61003U 24158P   26037.75055022  .00000772  00000-0  38219-4 0  9997
2 61003  53.1615 209.2923 0001370 101.6360 258.4795 15.30188240 80918
Epoch: 2026-02-06T18:00Z
TLE epoch observation values (Epoch: 2026-02-06T18:00:47.539Z)
Latitude
-0.00002°
Longitude
162.21027°
Altitude
476.338 km
Speed
7.629 km/s
True Right ascension
13h 57m 10s
True Declination
0° 00' 00"
Sunlit
Object was in daylight at epoch
Visualization orbit readout
Latitude
Unknown
Longitude
Unknown
Altitude
Unknown
Speed
Unknown
Apparent Right ascension
Unknown
Apparent Declination
Unknown
Sunlit
N/A
Visualization observer readout
Local Sidereal Time
17:12:28
Azimuth
Unknown
Elevation
Unknown
Doppler factor
Unknown
Orbital elements
Apogee altitude
476.445 km
Perigee altitude
474.567 km
Semi-major axis
6,853.643 km
Eccentricity
0.00014
Inclination
53.1615°
RAAN
209.2923°
Arg. of periapsis
101.636°
True anomaly
258.46412°
Mean anomaly
258.4795°
Eccentric anomaly
258.47181°
Mean motion
3.82526 °/min
Orbital period
94.11 mins
BSTAR
0.000038219
Loading maneuver chart data...
Computing Atmospheric mass density...
Loading historical data...
Loading historical data...
Loading historical data...
Loading historical data...
Loading historical data...
Loading historical data...
Loading historical data...

Documentation

Showing up to 5 results
|